Zurück zum Katalog

OPS 4682 DEB

AktivPO
NORAD 38369·DEBRIS·🇺🇸 United States

Gestartet Apr 3, 1965 von Vandenberg Space Force Base

Loading…

Nächste Überflüge (nächste 24 Stunden)

TLE

AktuellSource: Space-Track

Epoche: Sep 14, 2026, 13:16 UTC

1 38369U 65027BW  26257.55280299  .00000062  00000-0  18529-3 0  9997
2 38369  90.2450   8.3059 0031360 164.9003 195.3062 12.98492199564625

Verfolge OPS 4682 DEB in Echtzeit mit AllMySat

Download on the App Store